HELLAS-SAT 3

Last updated on Wed Oct 29 2025 00:02:49 GMT+0000 (Coordinated Universal Time)

1 42814U 17040A 25300.60337281 .00000163 00000+0 00000+0 0 9999 2 42814 0.0675 61.9101 0000241 185.5342 45.0174 1.00274675 30479
UTC large
Height (km)
Speed (km/s)
/
Latitude / Longitude
Inclination (degrees)
Orbital Period (minutes)
Azimuth
Elevation
Range (km)
Doppler Factor

Next 0 passes for location: London (51.5072 / 0.1276)

Sorry there are no passes over London.